| time (UTC) | temp C | wind direction | speed KPH | gust KPH | rain 1hr cm | rain 24hr cm | rain mn cm | humidity % | barometer mb |
| 20260507060521 | 9 | 244 | 0.0 | 3.2 | 0.00 | 0.76 | 0.03 | 70 | 1006.8 |
| 20260507060021 | 9 | 295 | 0.0 | 1.6 | 0.00 | 0.76 | 0.03 | 70 | 1006.9 |
| 20260507055519 | 9 | 295 | 0.0 | 1.6 | 0.00 | 0.76 | 0.03 | 69 | 1007.0 |
| 20260507055018 | 9 | 295 | 0.0 | 4.8 | 0.00 | 0.76 | 0.03 | 69 | 1006.9 |
| 20260507054517 | 9 | 295 | 0.0 | 4.8 | 0.00 | 0.76 | 0.03 | 69 | 1007.0 |
| 20260507054016 | 9 | 319 | 0.0 | 4.8 | 0.00 | 0.76 | 0.03 | 69 | 1006.9 |
| 20260507053515 | 9 | 281 | 1.6 | 4.8 | 0.00 | 0.76 | 0.03 | 69 | 1007.1 |
| 20260507053015 | 9 | 321 | 1.6 | 6.4 | 0.00 | 0.76 | 0.03 | 69 | 1007.4 |
| 20260507052513 | 10 | 304 | 3.2 | 6.4 | 0.00 | 0.76 | 0.03 | 69 | 1007.4 |
| 20260507052012 | 10 | 291 | 1.6 | 9.7 | 0.00 | 0.76 | 0.03 | 70 | 1007.5 |
| 20260507051511 | 10 | 293 | 3.2 | 9.7 | 0.00 | 0.76 | 0.03 | 70 | 1007.5 |
| 20260507051009 | 10 | 285 | 0.0 | 4.8 | 0.03 | 0.76 | 0.03 | 70 | 1007.5 |
| 20260507050509 | 10 | 288 | 0.0 | 6.4 | 0.03 | 0.76 | 0.03 | 69 | 1007.2 |
| 20260507050015 | 10 | 289 | 1.6 | 11.3 | 0.03 | 0.76 | 0.03 | 69 | 1007.1 |
| 20260507045507 | 10 | 295 | 3.2 | 12.9 | 0.03 | 0.76 | 0.03 | 69 | 1007.3 |
| 20260507045004 | 10 | 257 | 4.8 | 12.9 | 0.03 | 0.76 | 0.03 | 70 | 1007.3 |
| 20260507044503 | 10 | 302 | 1.6 | 6.4 | 0.03 | 0.76 | 0.03 | 71 | 1007.2 |
| 20260507044001 | 10 | 277 | 1.6 | 4.8 | 0.03 | 0.76 | 0.03 | 71 | 1007.2 |
| 20260507043600 | 10 | 276 | 0.0 | 4.8 | 0.03 | 0.76 | 0.03 | 71 | 1007.2 |
| 20260507043059 | 10 | 328 | 0.0 | 4.8 | 0.03 | 0.76 | 0.03 | 71 | 1007.0 |
| 20260507042559 | 10 | 281 | 0.0 | 3.2 | 0.05 | 0.76 | 0.03 | 71 | 1006.9 |
| 20260507042057 | 11 | 313 | 0.0 | 4.8 | 0.05 | 0.76 | 0.03 | 71 | 1007.0 |
| 20260507041556 | 11 | 316 | 1.6 | 4.8 | 0.05 | 0.76 | 0.03 | 71 | 1007.1 |
| 20260507041054 | 11 | 298 | 0.0 | 8.0 | 0.03 | 0.71 | 0.00 | 70 | 1007.0 |
| 20260507040554 | 11 | 290 | 3.2 | 8.0 | 0.03 | 0.71 | 0.00 | 70 | 1006.8 |
| 20260507040052 | 11 | 290 | 3.2 | 4.8 | 0.03 | 0.71 | 0.00 | 70 | 1006.9 |
| 20260507035550 | 11 | 228 | 0.0 | 6.4 | 0.03 | 0.71 | 0.71 | 70 | 1007.1 |
| 20260507035049 | 11 | 295 | 1.6 | 9.7 | 0.03 | 0.71 | 0.71 | 71 | 1007.0 |
| 20260507034547 | 11 | 317 | 3.2 | 9.7 | 0.03 | 0.71 | 0.71 | 71 | 1006.9 |
| 20260507034045 | 12 | 313 | 1.6 | 8.0 | 0.03 | 0.71 | 0.71 | 72 | 1006.8 |
| 20260507033544 | 12 | 287 | 0.0 | 4.8 | 0.03 | 0.71 | 0.71 | 72 | 1006.8 |
| 20260507033043 | 12 | 282 | 0.0 | 4.8 | 0.03 | 0.71 | 0.71 | 71 | 1006.7 |
| 20260507032544 | 12 | 274 | 0.0 | 4.8 | 0.00 | 0.71 | 0.71 | 71 | 1006.9 |
| 20260507032042 | 12 | 280 | 0.0 | 4.8 | 0.00 | 0.71 | 0.71 | 71 | 1006.6 |
| 20260507031540 | 12 | 277 | 0.0 | 3.2 | 0.00 | 0.71 | 0.71 | 71 | 1006.5 |
| 20260507031039 | 12 | 280 | 0.0 | 4.8 | 0.00 | 0.71 | 0.71 | 71 | 1006.5 |
| 20260507030538 | 12 | 268 | 1.6 | 6.4 | 0.00 | 0.71 | 0.71 | 71 | 1006.3 |
| 20260507030038 | 13 | 290 | 1.6 | 9.7 | 0.00 | 0.71 | 0.71 | 71 | 1006.1 |
| 20260507025537 | 13 | 290 | 1.6 | 11.3 | 0.00 | 0.71 | 0.71 | 72 | 1006.2 |
| 20260507025035 | 13 | 291 | 3.2 | 8.0 | 0.00 | 0.71 | 0.71 | 73 | 1006.0 |
| 20260507024533 | 13 | 281 | 1.6 | 8.0 | 0.00 | 0.71 | 0.71 | 73 | 1006.0 |
| 20260507024030 | 13 | 218 | 0.0 | 6.4 | 0.00 | 0.71 | 0.71 | 73 | 1006.0 |
| 20260507023529 | 13 | 231 | 1.6 | 8.0 | 0.00 | 0.71 | 0.71 | 73 | 1006.1 |
| 20260507023028 | 13 | 233 | 1.6 | 8.0 | 0.00 | 0.71 | 0.71 | 73 | 1006.1 |
| 20260507022526 | 14 | 233 | 1.6 | 11.3 | 0.00 | 0.71 | 0.71 | 73 | 1006.1 |
| 20260507022025 | 14 | 248 | 4.8 | 12.9 | 0.00 | 0.71 | 0.71 | 74 | 1006.1 |
| 20260507021523 | 14 | 231 | 3.2 | 12.9 | 0.00 | 0.71 | 0.71 | 75 | 1006.0 |
| 20260507021024 | 15 | 252 | 1.6 | 12.9 | 0.00 | 0.71 | 0.71 | 76 | 1006.1 |
| 20260507020523 | 15 | 257 | 4.8 | 17.7 | 0.00 | 0.71 | 0.71 | 77 | 1005.9 |
| 20260507020022 | 15 | 248 | 3.2 | 17.7 | 0.00 | 0.71 | 0.71 | 77 | 1005.8 |
| 20260507015523 | 15 | 259 | 9.7 | 16.1 | 0.00 | 0.71 | 0.71 | 77 | 1005.7 |
| 20260507015022 | 15 | 228 | 4.8 | 11.3 | 0.00 | 0.71 | 0.71 | 77 | 1005.5 |
| 20260507014520 | 15 | 243 | 6.4 | 12.9 | 0.00 | 0.71 | 0.71 | 77 | 1005.6 |
| 20260507014020 | 15 | 233 | 6.4 | 12.9 | 0.00 | 0.71 | 0.71 | 77 | 1005.6 |
| 20260507013519 | 15 | 205 | 6.4 | 12.9 | 0.00 | 0.71 | 0.71 | 77 | 1005.7 |
| 20260507013018 | 15 | 217 | 6.4 | 11.3 | 0.00 | 0.71 | 0.71 | 77 | 1005.5 |
| 20260507012518 | 15 | 223 | 4.8 | 9.7 | 0.00 | 0.71 | 0.71 | 77 | 1005.5 |
| 20260507012018 | 15 | 211 | 4.8 | 12.9 | 0.00 | 0.71 | 0.71 | 77 | 1005.5 |
| 20260507011517 | 15 | 218 | 8.0 | 12.9 | 0.00 | 0.71 | 0.71 | 78 | 1005.4 |
| 20260507011015 | 15 | 181 | 6.4 | 12.9 | 0.00 | 0.71 | 0.71 | 78 | 1005.5 |
| 20260507010514 | 15 | 232 | 4.8 | 12.9 | 0.00 | 0.71 | 0.71 | 78 | 1005.6 |
| 20260507010018 | 15 | 236 | 6.4 | 17.7 | 0.00 | 0.71 | 0.71 | 78 | 1005.5 |
| 20260507005513 | 15 | 240 | 8.0 | 17.7 | 0.00 | 0.71 | 0.71 | 78 | 1005.5 |
| 20260507005013 | 15 | 146 | 6.4 | 17.7 | 0.00 | 0.71 | 0.71 | 78 | 1005.5 |
| 20260507004513 | 15 | 238 | 6.4 | 17.7 | 0.00 | 0.71 | 0.71 | 79 | 1005.4 |
| 20260507004011 | 15 | 224 | 8.0 | 17.7 | 0.00 | 0.71 | 0.71 | 79 | 1005.4 |
| 20260507003510 | 15 | 217 | 8.0 | 16.1 | 0.03 | 0.71 | 0.71 | 80 | 1005.3 |
| 20260507003009 | 15 | 212 | 6.4 | 12.9 | 0.03 | 0.71 | 0.71 | 80 | 1005.2 |
| 20260507002508 | 15 | 237 | 6.4 | 12.9 | 0.03 | 0.71 | 0.71 | 80 | 1005.2 |
| 20260507002007 | 15 | 251 | 6.4 | 12.9 | 0.03 | 0.71 | 0.71 | 80 | 1005.2 |
| 20260507001511 | 14 | 219 | 6.4 | 9.7 | 0.05 | 0.71 | 0.71 | 80 | 1005.3 |
| 20260507001006 | 14 | 198 | 3.2 | 9.7 | 0.05 | 0.71 | 0.71 | 80 | 1005.1 |
| 20260507000606 | 14 | 227 | 3.2 | 9.7 | 0.05 | 0.71 | 0.71 | 80 | 1005.1 |
| 20260507000004 | 14 | 150 | 4.8 | 8.0 | 0.08 | 0.71 | 0.71 | 80 | 1005.1 |
| 20260506235503 | 14 | 127 | 3.2 | 8.0 | 0.08 | 0.71 | 0.71 | 80 | 1005.0 |
| 20260506235004 | 14 | 213 | 3.2 | 12.9 | 0.10 | 0.71 | 0.71 | 80 | 1005.2 |
| 20260506234502 | 14 | 226 | 4.8 | 12.9 | 0.10 | 0.71 | 0.71 | 80 | 1005.2 |
| 20260506234002 | 14 | 207 | 4.8 | 12.9 | 0.13 | 0.71 | 0.71 | 80 | 1005.0 |
| 20260506233500 | 14 | 196 | 4.8 | 11.3 | 0.10 | 0.69 | 0.69 | 80 | 1004.9 |
| 20260506233000 | 14 | 227 | 4.8 | 11.3 | 0.13 | 0.69 | 0.69 | 80 | 1005.0 |
| 20260506232600 | 14 | 200 | 3.2 | 11.3 | 0.13 | 0.69 | 0.69 | 80 | 1004.9 |
| 20260506232059 | 14 | 165 | 3.2 | 11.3 | 0.15 | 0.69 | 0.69 | 80 | 1004.8 |
| 20260506231610 | 14 | 215 | 4.8 | 11.3 | 0.13 | 0.66 | 0.66 | 80 | 1005.0 |
| 20260506231059 | 14 | 185 | 3.2 | 8.0 | 0.15 | 0.66 | 0.66 | 80 | 1004.9 |
| 20260506230557 | 14 | 156 | 3.2 | 11.3 | 0.15 | 0.66 | 0.66 | 80 | 1004.9 |
| 20260506230111 | 14 | 217 | 4.8 | 11.3 | 0.13 | 0.64 | 0.64 | 80 | 1004.9 |
| 20260506225555 | 14 | 229 | 4.8 | 9.7 | 0.15 | 0.64 | 0.64 | 80 | 1005.0 |
| 20260506225054 | 14 | 224 | 3.2 | 11.3 | 0.13 | 0.61 | 0.61 | 80 | 1005.0 |
| 20260506224553 | 14 | 214 | 4.8 | 11.3 | 0.13 | 0.61 | 0.61 | 80 | 1005.1 |
| 20260506224053 | 14 | 202 | 4.8 | 9.7 | 0.13 | 0.58 | 0.58 | 79 | 1005.1 |
| 20260506223551 | 14 | 223 | 4.8 | 12.9 | 0.13 | 0.58 | 0.58 | 79 | 1005.1 |
| 20260506223050 | 14 | 226 | 4.8 | 12.9 | 0.10 | 0.56 | 0.56 | 79 | 1005.0 |
| 20260506222551 | 14 | 193 | 4.8 | 12.9 | 0.10 | 0.56 | 0.56 | 79 | 1005.0 |
| 20260506222048 | 14 | 243 | 4.8 | 14.5 | 0.10 | 0.53 | 0.53 | 78 | 1005.1 |
| 20260506221607 | 14 | 212 | 4.8 | 14.5 | 0.10 | 0.53 | 0.53 | 78 | 1005.0 |
| 20260506221047 | 14 | 205 | 6.4 | 12.9 | 0.10 | 0.51 | 0.51 | 78 | 1005.1 |
| 20260506220549 | 14 | 200 | 4.8 | 12.9 | 0.10 | 0.51 | 0.51 | 78 | 1005.1 |
| 20260506220101 | 14 | 182 | 4.8 | 12.9 | 0.10 | 0.51 | 0.51 | 78 | 1005.2 |
| 20260506215544 | 14 | 170 | 6.4 | 14.5 | 0.10 | 0.48 | 0.48 | 77 | 1005.4 |
| 20260506215043 | 14 | 215 | 4.8 | 14.5 | 0.10 | 0.48 | 0.48 | 77 | 1005.2 |
| 20260506214547 | 14 | 227 | 3.2 | 12.9 | 0.13 | 0.48 | 0.48 | 77 | 1005.2 |
| 20260506214041 | 14 | 193 | 3.2 | 14.5 | 0.10 | 0.46 | 0.46 | 76 | 1005.3 |
| 20260506213540 | 15 | 222 | 8.0 | 17.7 | 0.13 | 0.46 | 0.46 | 76 | 1005.3 |
| 20260506213044 | 15 | 233 | 6.4 | 17.7 | 0.13 | 0.46 | 0.46 | 76 | 1005.4 |
| 20260506212537 | 15 | 152 | 4.8 | 19.3 | 0.15 | 0.46 | 0.46 | 76 | 1005.4 |
| 20260506212036 | 15 | 221 | 6.4 | 19.3 | 0.13 | 0.43 | 0.43 | 76 | 1005.5 |
| 20260506211536 | 15 | 207 | 8.0 | 14.5 | 0.15 | 0.43 | 0.43 | 76 | 1005.4 |
| 20260506211033 | 15 | 215 | 8.0 | 12.9 | 0.15 | 0.41 | 0.41 | 76 | 1005.5 |
| 20260506210532 | 15 | 152 | 4.8 | 11.3 | 0.15 | 0.41 | 0.41 | 76 | 1005.4 |
| 20260506210033 | 15 | 220 | 3.2 | 11.3 | 0.18 | 0.41 | 0.41 | 75 | 1005.6 |
| 20260506205530 | 15 | 203 | 3.2 | 9.7 | 0.15 | 0.38 | 0.38 | 74 | 1005.5 |
| 20260506205026 | 15 | 205 | 3.2 | 12.9 | 0.18 | 0.38 | 0.38 | 74 | 1005.6 |
| 20260506204527 | 15 | 154 | 6.4 | 17.7 | 0.15 | 0.36 | 0.36 | 73 | 1005.7 |
| 20260506204022 | 15 | 211 | 4.8 | 19.3 | 0.18 | 0.36 | 0.36 | 73 | 1005.7 |
| 20260506203524 | 15 | 174 | 8.0 | 19.3 | 0.15 | 0.33 | 0.33 | 73 | 1005.7 |
| 20260506203019 | 15 | 174 | 8.0 | 19.3 | 0.15 | 0.33 | 0.33 | 73 | 1005.8 |
| 20260506202516 | 15 | 191 | 8.0 | 19.3 | 0.13 | 0.30 | 0.30 | 73 | 1005.9 |
| 20260506202015 | 15 | 216 | 12.9 | 22.5 | 0.13 | 0.30 | 0.30 | 73 | 1006.0 |
| 20260506201526 | 15 | 166 | 9.7 | 22.5 | 0.10 | 0.28 | 0.28 | 73 | 1006.0 |
| 20260506201011 | 15 | 203 | 8.0 | 19.3 | 0.08 | 0.25 | 0.25 | 73 | 1006.0 |
| 20260506200510 | 15 | 230 | 6.4 | 14.5 | 0.08 | 0.25 | 0.25 | 72 | 1005.9 |
| 20260506200008 | 15 | 221 | 4.8 | 11.3 | 0.08 | 0.23 | 0.23 | 72 | 1006.0 |
| 20260506195508 | 15 | 136 | 4.8 | 12.9 | 0.08 | 0.23 | 0.23 | 72 | 1006.0 |
| 20260506195006 | 15 | 193 | 6.4 | 12.9 | 0.05 | 0.20 | 0.20 | 71 | 1006.1 |
| 20260506194506 | 16 | 202 | 4.8 | 16.1 | 0.03 | 0.18 | 0.18 | 71 | 1006.0 |
| 20260506194003 | 16 | 205 | 6.4 | 14.5 | 0.03 | 0.18 | 0.18 | 71 | 1006.1 |
| 20260506193503 | 16 | 201 | 6.4 | 12.9 | 0.03 | 0.18 | 0.18 | 71 | 1006.2 |
| 20260506193002 | 16 | 216 | 8.0 | 16.1 | 0.05 | 0.18 | 0.18 | 71 | 1006.1 |
| 20260506192504 | 16 | 174 | 4.8 | 16.1 | 0.05 | 0.18 | 0.18 | 71 | 1006.2 |
| 20260506192100 | 16 | 174 | 6.4 | 16.1 | 0.08 | 0.18 | 0.18 | 70 | 1006.2 |
| 20260506191622 | 16 | 218 | 6.4 | 16.1 | 0.08 | 0.18 | 0.18 | 70 | 1006.1 |
| 20260506191058 | 16 | 260 | 9.7 | 17.7 | 0.10 | 0.18 | 0.18 | 70 | 1006.1 |
| 20260506190558 | 16 | 199 | 9.7 | 22.5 | 0.10 | 0.18 | 0.18 | 70 | 1006.3 |
| 20260506190057 | 16 | 255 | 12.9 | 22.5 | 0.10 | 0.15 | 0.15 | 70 | 1006.2 |
| 20260506185556 | 16 | 146 | 9.7 | 17.7 | 0.10 | 0.15 | 0.15 | 70 | 1006.1 |
| 20260506185054 | 16 | 191 | 3.2 | 11.3 | 0.13 | 0.15 | 0.15 | 70 | 1006.0 |
| 20260506184605 | 16 | 198 | 4.8 | 12.9 | 0.13 | 0.15 | 0.15 | 69 | 1006.2 |
| 20260506184053 | 16 | 196 | 6.4 | 20.9 | 0.15 | 0.15 | 0.15 | 69 | 1006.2 |
| 20260506183551 | 16 | 245 | 8.0 | 20.9 | 0.15 | 0.15 | 0.15 | 69 | 1006.4 |
| 20260506183050 | 16 | 207 | 6.4 | 17.7 | 0.13 | 0.13 | 0.13 | 69 | 1006.4 |
| 20260506182548 | 16 | 230 | 8.0 | 17.7 | 0.13 | 0.13 | 0.13 | 69 | 1006.7 |
| 20260506182048 | 16 | 199 | 8.0 | 14.5 | 0.10 | 0.10 | 0.10 | 68 | 1006.7 |
| 20260506181547 | 16 | 240 | 6.4 | 17.7 | 0.10 | 0.10 | 0.10 | 67 | 1006.6 |
| 20260506181046 | 16 | 219 | 8.0 | 20.9 | 0.08 | 0.08 | 0.08 | 66 | 1006.9 |
| 20260506180546 | 17 | 209 | 9.7 | 22.5 | 0.08 | 0.08 | 0.08 | 66 | 1006.9 |
| 20260506180044 | 17 | 201 | 11.3 | 22.5 | 0.05 | 0.05 | 0.05 | 65 | 1006.9 |
| 20260506175544 | 17 | 212 | 12.9 | 24.1 | 0.05 | 0.05 | 0.05 | 63 | 1007.1 |
| 20260506175043 | 17 | 189 | 14.5 | 25.7 | 0.03 | 0.03 | 0.03 | 61 | 1007.0 |
| 20260506174541 | 18 | 237 | 9.7 | 25.7 | 0.00 | 0.00 | 0.00 | 60 | 1007.0 |
| 20260506174041 | 18 | 208 | 14.5 | 22.5 | 0.00 | 0.00 | 0.00 | 57 | 1007.1 |
| 20260506173540 | 19 | 260 | 14.5 | 22.5 | 0.00 | 0.00 | 0.00 | 55 | 1006.7 |
| 20260506173045 | 20 | 247 | 11.3 | 24.1 | 0.00 | 0.00 | 0.00 | 53 | 1006.8 |
| 20260506172539 | 20 | 264 | 11.3 | 20.9 | 0.00 | 0.00 | 0.00 | 52 | 1006.8 |
| 20260506172038 | 20 | 231 | 12.9 | 20.9 | 0.00 | 0.00 | 0.00 | 51 | 1006.7 |
| 20260506171552 | 20 | 247 | 11.3 | 24.1 | 0.00 | 0.00 | 0.00 | 51 | 1006.6 |
| 20260506171036 | 20 | 256 | 8.0 | 30.6 | 0.00 | 0.00 | 0.00 | 51 | 1006.6 |
| 20260506170536 | 20 | 220 | 14.5 | 30.6 | 0.00 | 0.00 | 0.00 | 50 | 1006.7 |
| 20260506170038 | 20 | 203 | 12.9 | 27.4 | 0.00 | 0.00 | 0.00 | 50 | 1006.6 |
| 20260506165535 | 20 | 235 | 16.1 | 24.1 | 0.00 | 0.00 | 0.00 | 49 | 1006.6 |
| 20260506165033 | 20 | 266 | 11.3 | 24.1 | 0.00 | 0.00 | 0.00 | 50 | 1006.7 |
| 20260506164530 | 20 | 245 | 11.3 | 25.7 | 0.00 | 0.00 | 0.00 | 49 | 1006.7 |
| 20260506164030 | 20 | 193 | 9.7 | 27.4 | 0.00 | 0.00 | 0.00 | 49 | 1006.8 |
| 20260506163529 | 20 | 240 | 11.3 | 19.3 | 0.00 | 0.00 | 0.00 | 49 | 1006.8 |
| 20260506163034 | 20 | 233 | 6.4 | 19.3 | 0.00 | 0.00 | 0.00 | 49 | 1006.9 |
| 20260506162528 | 20 | 215 | 11.3 | 19.3 | 0.00 | 0.00 | 0.00 | 49 | 1007.0 |
| 20260506162025 | 20 | 260 | 11.3 | 32.2 | 0.00 | 0.00 | 0.00 | 49 | 1007.0 |
| 20260506161526 | 20 | 236 | 16.1 | 32.2 | 0.00 | 0.00 | 0.00 | 48 | 1007.1 |
| 20260506161024 | 20 | 228 | 9.7 | 20.9 | 0.00 | 0.00 | 0.00 | 50 | 1007.4 |
| 20260506160523 | 20 | 221 | 11.3 | 19.3 | 0.00 | 0.00 | 0.00 | 50 | 1007.3 |
| 20260506160023 | 20 | 233 | 9.7 | 24.1 | 0.00 | 0.00 | 0.00 | 50 | 1007.4 |
| 20260506155520 | 20 | 187 | 9.7 | 24.1 | 0.00 | 0.00 | 0.00 | 50 | 1007.4 |
| 20260506155019 | 20 | 224 | 11.3 | 20.9 | 0.00 | 0.00 | 0.00 | 50 | 1007.5 |
| 20260506154520 | 20 | 226 | 12.9 | 24.1 | 0.00 | 0.00 | 0.00 | 49 | 1007.7 |
| 20260506154017 | 20 | 219 | 11.3 | 24.1 | 0.00 | 0.00 | 0.00 | 50 | 1007.7 |
| 20260506153516 | 20 | 233 | 11.3 | 22.5 | 0.00 | 0.00 | 0.00 | 50 | 1007.8 |
| 20260506153014 | 20 | 231 | 12.9 | 25.7 | 0.00 | 0.00 | 0.00 | 50 | 1007.9 |
| 20260506152515 | 20 | 141 | 6.4 | 22.5 | 0.00 | 0.00 | 0.00 | 52 | 1007.9 |
| 20260506152013 | 20 | 225 | 11.3 | 22.5 | 0.00 | 0.00 | 0.00 | 51 | 1007.9 |
| 20260506151514 | 20 | 210 | 14.5 | 24.1 | 0.00 | 0.00 | 0.00 | 51 | 1008.0 |
| 20260506151010 | 20 | 208 | 9.7 | 24.1 | 0.00 | 0.00 | 0.00 | 53 | 1008.1 |
| 20260506150511 | 20 | 195 | 11.3 | 20.9 | 0.00 | 0.00 | 0.00 | 53 | 1008.1 |
| 20260506150009 | 20 | 206 | 9.7 | 27.4 | 0.00 | 0.00 | 0.00 | 53 | 1008.3 |
| 20260506145509 | 20 | 163 | 11.3 | 27.4 | 0.00 | 0.00 | 0.00 | 53 | 1008.4 |
| 20260506145008 | 20 | 222 | 8.0 | 29.0 | 0.00 | 0.00 | 0.00 | 53 | 1008.2 |
| 20260506144507 | 20 | 248 | 12.9 | 29.0 | 0.00 | 0.00 | 0.00 | 53 | 1008.0 |
| 20260506144106 | 19 | 156 | 9.7 | 33.8 | 0.00 | 0.00 | 0.00 | 53 | 1008.1 |
| 20260506143506 | 19 | 212 | 16.1 | 33.8 | 0.00 | 0.00 | 0.00 | 53 | 1008.4 |
| 20260506143006 | 19 | 198 | 8.0 | 19.3 | 0.00 | 0.00 | 0.00 | 55 | 1008.5 |
| 20260506142503 | 19 | 236 | 9.7 | 20.9 | 0.00 | 0.00 | 0.00 | 55 | 1008.3 |
| 20260506142004 | 19 | 205 | 11.3 | 20.9 | 0.00 | 0.00 | 0.00 | 55 | 1008.3 |
| 20260506141501 | 19 | 168 | 8.0 | 22.5 | 0.00 | 0.00 | 0.00 | 55 | 1008.2 |
| 20260506141100 | 19 | 204 | 11.3 | 22.5 | 0.00 | 0.00 | 0.00 | 55 | 1008.2 |
| 20260506140600 | 19 | 217 | 9.7 | 19.3 | 0.00 | 0.00 | 0.00 | 56 | 1008.1 |
| 20260506135557 | 18 | 130 | 6.4 | 12.9 | 0.00 | 0.00 | 0.00 | 57 | 1008.1 |
| 20260506135055 | 18 | 206 | 4.8 | 19.3 | 0.00 | 0.00 | 0.00 | 58 | 1008.0 |
| 20260506134554 | 18 | 219 | 12.9 | 19.3 | 0.00 | 0.00 | 0.00 | 57 | 1008.0 |
| 20260506134053 | 18 | 211 | 11.3 | 19.3 | 0.00 | 0.00 | 0.00 | 57 | 1008.2 |
| 20260506133553 | 18 | 230 | 8.0 | 19.3 | 0.00 | 0.00 | 0.00 | 58 | 1008.3 |
| 20260506133052 | 18 | 189 | 9.7 | 19.3 | 0.00 | 0.00 | 0.00 | 58 | 1008.2 |
| 20260506132552 | 18 | 203 | 6.4 | 19.3 | 0.00 | 0.00 | 0.00 | 58 | 1008.4 |
| 20260506132053 | 18 | 223 | 6.4 | 16.1 | 0.00 | 0.00 | 0.00 | 59 | 1008.4 |
| 20260506131605 | 18 | 210 | 8.0 | 19.3 | 0.00 | 0.00 | 0.00 | 59 | 1008.5 |
| 20260506131050 | 17 | 217 | 11.3 | 19.3 | 0.00 | 0.00 | 0.00 | 59 | 1008.6 |
| 20260506130549 | 17 | 249 | 8.0 | 24.1 | 0.00 | 0.00 | 0.00 | 59 | 1008.7 |
| 20260506130051 | 17 | 242 | 9.7 | 27.4 | 0.00 | 0.00 | 0.00 | 59 | 1008.6 |
| 20260506125547 | 17 | 235 | 9.7 | 22.5 | 0.00 | 0.00 | 0.00 | 59 | 1008.6 |
| 20260506125046 | 17 | 238 | 11.3 | 22.5 | 0.00 | 0.00 | 0.00 | 58 | 1008.7 |
| 20260506124544 | 17 | 197 | 11.3 | 19.3 | 0.00 | 0.00 | 0.00 | 58 | 1008.7 |
| 20260506124044 | 18 | 240 | 8.0 | 17.7 | 0.00 | 0.00 | 0.00 | 58 | 1008.5 |
| 20260506123543 | 18 | 203 | 11.3 | 29.0 | 0.00 | 0.00 | 0.00 | 58 | 1008.8 |
| 20260506123042 | 18 | 228 | 11.3 | 20.9 | 0.00 | 0.00 | 0.00 | 57 | 1008.8 |
| 20260506122542 | 18 | 205 | 8.0 | 17.7 | 0.00 | 0.00 | 0.00 | 57 | 1008.6 |
| 20260506122041 | 18 | 224 | 8.0 | 19.3 | 0.00 | 0.00 | 0.00 | 57 | 1008.5 |
| 20260506121539 | 18 | 239 | 11.3 | 22.5 | 0.00 | 0.00 | 0.00 | 57 | 1008.5 |
| 20260506121037 | 18 | 183 | 9.7 | 24.1 | 0.00 | 0.00 | 0.00 | 58 | 1008.5 |
| 20260506120537 | 17 | 150 | 12.9 | 25.7 | 0.00 | 0.00 | 0.00 | 59 | 1008.6 |
| 20260506120036 | 17 | 246 | 12.9 | 33.8 | 0.00 | 0.00 | 0.00 | 58 | 1008.7 |
| 20260506115535 | 17 | 198 | 16.1 | 33.8 | 0.00 | 0.00 | 0.00 | 58 | 1008.7 |
| 20260506115034 | 17 | 266 | 9.7 | 25.7 | 0.00 | 0.00 | 0.00 | 59 | 1008.6 |
| 20260506114540 | 17 | 222 | 12.9 | 29.0 | 0.00 | 0.00 | 0.00 | 59 | 1008.4 |
| 20260506114033 | 17 | 221 | 11.3 | 29.0 | 0.00 | 0.00 | 0.00 | 59 | 1008.5 |
| 20260506113531 | 17 | 238 | 8.0 | 17.7 | 0.00 | 0.00 | 0.00 | 60 | 1008.7 |
| 20260506113031 | 17 | 201 | 9.7 | 17.7 | 0.00 | 0.00 | 0.00 | 61 | 1008.8 |
| 20260506112531 | 17 | 202 | 8.0 | 16.1 | 0.00 | 0.00 | 0.00 | 61 | 1008.9 |
| 20260506112029 | 17 | 212 | 8.0 | 25.7 | 0.00 | 0.00 | 0.00 | 61 | 1009.0 |
| 20260506111528 | 17 | 207 | 11.3 | 25.7 | 0.00 | 0.00 | 0.00 | 61 | 1009.0 |
| 20260506111043 | 16 | 129 | 11.3 | 24.1 | 0.00 | 0.00 | 0.00 | 61 | 1009.0 |
| 20260506110528 | 16 | 218 | 11.3 | 20.9 | 0.00 | 0.00 | 0.00 | 61 | 1009.1 |
| 20260506110032 | 16 | 221 | 4.8 | 20.9 | 0.00 | 0.00 | 0.00 | 61 | 1009.1 |
| 20260506105527 | 16 | 211 | 9.7 | 20.9 | 0.00 | 0.00 | 0.00 | 61 | 1009.0 |
| 20260506105025 | 16 | 205 | 8.0 | 14.5 | 0.00 | 0.00 | 0.00 | 61 | 1008.9 |
| 20260506104523 | 16 | 167 | 6.4 | 20.9 | 0.00 | 0.00 | 0.00 | 61 | 1008.7 |
| 20260506104021 | 16 | 240 | 11.3 | 20.9 | 0.00 | 0.00 | 0.00 | 61 | 1009.0 |
| 20260506103522 | 16 | 204 | 9.7 | 19.3 | 0.00 | 0.00 | 0.00 | 61 | 1009.0 |
| 20260506103022 | 16 | 147 | 8.0 | 19.3 | 0.00 | 0.00 | 0.00 | 62 | 1009.0 |
| 20260506102520 | 16 | 175 | 6.4 | 17.7 | 0.00 | 0.00 | 0.00 | 62 | 1008.9 |
| 20260506102019 | 15 | 212 | 4.8 | 17.7 | 0.00 | 0.00 | 0.00 | 62 | 1008.8 |
| 20260506101519 | 15 | 221 | 4.8 | 20.9 | 0.00 | 0.00 | 0.00 | 62 | 1008.9 |
| 20260506101017 | 15 | 214 | 6.4 | 17.7 | 0.00 | 0.00 | 0.00 | 62 | 1008.9 |
| 20260506100516 | 15 | 231 | 8.0 | 16.1 | 0.00 | 0.00 | 0.00 | 62 | 1008.8 |
| 20260506100022 | 15 | 238 | 8.0 | 14.5 | 0.00 | 0.00 | 0.00 | 62 | 1008.8 |
| 20260506095515 | 15 | 217 | 4.8 | 14.5 | 0.00 | 0.00 | 0.00 | 62 | 1008.9 |
| 20260506095015 | 15 | 225 | 3.2 | 11.3 | 0.00 | 0.00 | 0.00 | 62 | 1008.9 |
| 20260506094512 | 15 | 191 | 6.4 | 11.3 | 0.00 | 0.00 | 0.00 | 62 | 1008.7 |
| 20260506094012 | 15 | 218 | 4.8 | 12.9 | 0.00 | 0.00 | 0.00 | 61 | 1008.8 |
| 20260506093512 | 15 | 185 | 4.8 | 17.7 | 0.00 | 0.00 | 0.00 | 61 | 1008.8 |
| 20260506093011 | 15 | 204 | 6.4 | 17.7 | 0.00 | 0.00 | 0.00 | 62 | 1008.9 |
| 20260506092514 | 15 | 252 | 4.8 | 17.7 | 0.00 | 0.00 | 0.00 | 61 | 1008.7 |
| 20260506092010 | 15 | 196 | 6.4 | 17.7 | 0.00 | 0.00 | 0.00 | 62 | 1008.7 |
| 20260506091509 | 15 | 200 | 6.4 | 14.5 | 0.00 | 0.00 | 0.00 | 62 | 1008.7 |
| 20260506091008 | 15 | 165 | 3.2 | 12.9 | 0.00 | 0.00 | 0.00 | 61 | 1008.9 |
| 20260506090507 | 15 | 177 | 8.0 | 12.9 | 0.00 | 0.00 | 0.00 | 62 | 1008.9 |
| 20260506090006 | 15 | 230 | 3.2 | 11.3 | 0.00 | 0.00 | 0.00 | 61 | 1008.9 |
| 20260506085506 | 15 | 208 | 4.8 | 14.5 | 0.00 | 0.00 | 0.00 | 61 | 1008.9 |
| 20260506085005 | 15 | 230 | 8.0 | 14.5 | 0.00 | 0.00 | 0.00 | 61 | 1008.9 |
| 20260506084504 | 15 | 196 | 1.6 | 12.9 | 0.00 | 0.00 | 0.00 | 61 | 1008.9 |
| 20260506084003 | 15 | 157 | 4.8 | 9.7 | 0.00 | 0.00 | 0.00 | 61 | 1008.9 |
| 20260506083502 | 15 | 221 | 1.6 | 4.8 | 0.00 | 0.00 | 0.00 | 61 | 1008.9 |
| 20260506083101 | 15 | 226 | 1.6 | 9.7 | 0.00 | 0.00 | 0.00 | 60 | 1008.9 |
| 20260506082601 | 15 | 239 | 3.2 | 9.7 | 0.00 | 0.00 | 0.00 | 60 | 1008.9 |
| 20260506082058 | 16 | 211 | 3.2 | 12.9 | 0.00 | 0.00 | 0.00 | 60 | 1008.9 |
| 20260506081659 | 16 | 206 | 6.4 | 12.9 | 0.00 | 0.00 | 0.00 | 60 | 1009.0 |
| 20260506081056 | 16 | 226 | 4.8 | 12.9 | 0.00 | 0.00 | 0.00 | 60 | 1009.0 |
| 20260506080556 | 16 | 209 | 4.8 | 9.7 | 0.00 | 0.00 | 0.00 | 60 | 1009.0 |
| 20260506073046 | 16 | 259 | 4.8 | 16.1 | 0.00 | 0.00 | 0.00 | 56 | 1009.0 |
| 20260506072647 | 16 | 192 | 6.4 | 16.1 | 0.00 | 0.00 | 0.00 | 56 | 1009.0 |
| 20260506072044 | 17 | 242 | 4.8 | 19.3 | 0.00 | 0.00 | 0.00 | 56 | 1008.9 |
| 20260506071542 | 17 | 213 | 6.4 | 19.3 | 0.00 | 0.00 | 0.00 | 55 | 1009.0 |
| 20260506071041 | 17 | 227 | 6.4 | 19.3 | 0.00 | 0.00 | 0.00 | 55 | 1008.8 |
| 20260506070542 | 17 | 236 | 6.4 | 19.3 | 0.00 | 0.00 | 0.00 | 55 | 1008.7 |
| 20260506062032 | 17 | 229 | 8.0 | 17.7 | 0.00 | 0.00 | 0.00 | 52 | 1008.4 |
| 20260506061531 | 17 | 243 | 4.8 | 16.1 | 0.00 | 0.00 | 0.00 | 52 | 1008.4 |
| 20260506061030 | 17 | 245 | 6.4 | 17.7 | 0.00 | 0.00 | 0.00 | 52 | 1008.5 |